カタログに戻る

STARLINK-5657

運用中通信VLEO
NORAD 55342·PAYLOAD·🇺🇸 United States

打ち上げ Jan 26, 2023 から Cape Canaveral Space Force Station

Loading…

次のパス (今後24時間)

TLE

最新Source: CelesTrak SupGP

元期: Sep 15, 2026, 01:34 UTC

1 55342C 23013M   26258.06576389  .00031258  00000+0  11324-2 0  2584
2 55342  43.0034 314.2820 0001814 285.4003   5.1230 15.27555411    19

AllMySatでSTARLINK-5657をリアルタイム追跡

Download on the App Store